User: anonymous   Login
Location: The Saddle
(36.8333°N, 80.3417°W)
Time: 12:50:14
(UTC-04:00)
Language:

Courier 1B - Orbit

View from above orbital plane
View from above orbital plane
View from above satellite
View from above satellite

Ground track
Ground track

The orbit data is extracted from the following two-line orbital elements,

1    58U 60013A   24174.19713929  .00000132  00000-0  71179-4 0  9997
2    58  28.3264 218.3274 0164877 324.6763  34.2954 13.46378820136820
Epoch (UTC): 22 June 2024 04:43:52
Eccentricity: 0.0164877
inclination: 28.3264°
perigee height: 962 km
apogee height: 1208 km
right ascension of ascending node: 218.3274°
argument of perigee: 324.6763°
revolutions per day: 13.46378820
mean anomaly at epoch: 34.2954°
orbit number at epoch: 13682

The dashed part of the orbit path shows where the satellite is in the earth's shadow,  

DLR